TimeCDT,TemperatureF,Dew PointF,Humidity,Sea Level PressureIn,VisibilityMPH,Wind Direction,Wind SpeedMPH,Gust SpeedMPH,PrecipitationIn,Events,Conditions,WindDirDegrees,DateUTC
12:56 AM,48.0,45.0,89,29.39,10.0,NNE,3.5,-,N/A,,Mostly Cloudy,20,2012-10-17 05:56:00
1:56 AM,45.0,43.0,93,29.37,10.0,Calm,Calm,-,N/A,,Clear,0,2012-10-17 06:56:00
2:56 AM,48.0,45.0,89,29.36,10.0,East,4.6,-,N/A,,Clear,90,2012-10-17 07:56:00
3:56 AM,48.9,46.0,90,29.35,10.0,Calm,Calm,-,N/A,,Clear,0,2012-10-17 08:56:00
5:56 AM,46.0,44.1,93,29.33,6.0,ENE,3.5,-,N/A,,Clear,70,2012-10-17 10:56:00
6:56 AM,46.9,45.0,93,29.31,7.0,East,3.5,-,N/A,,Clear,80,2012-10-17 11:56:00
7:56 AM,50.0,46.9,89,29.28,6.0,Calm,Calm,-,N/A,,Overcast,0,2012-10-17 12:56:00
8:56 AM,51.1,48.0,89,29.27,6.0,ESE,4.6,-,N/A,,Overcast,110,2012-10-17 13:56:00
9:56 AM,54.0,48.0,80,29.25,10.0,SSE,4.6,-,N/A,,Overcast,150,2012-10-17 14:56:00
10:56 AM,57.9,48.9,72,29.25,10.0,South,13.8,-,N/A,,Overcast,170,2012-10-17 15:56:00
11:56 AM,59.0,50.0,72,29.24,10.0,South,13.8,-,N/A,,Overcast,170,2012-10-17 16:56:00
12:56 PM,62.1,51.1,67,29.24,10.0,South,13.8,-,N/A,,Overcast,180,2012-10-17 17:56:00
1:56 PM,60.1,53.1,78,29.22,10.0,SSW,8.1,-,0.01,Rain,Light Rain,200,2012-10-17 18:56:00
2:46 PM,59.0,51.8,77,29.24,10.0,SW,12.7,21.9,0.00,,Overcast,230,2012-10-17 19:46:00
2:56 PM,60.1,51.1,72,29.24,10.0,SW,17.3,23.0,0.00,,Overcast,220,2012-10-17 19:56:00
3:14 PM,59.0,50.0,72,29.24,10.0,SW,13.8,20.7,N/A,,Overcast,230,2012-10-17 20:14:00
3:27 PM,57.2,50.0,77,29.25,10.0,SW,13.8,24.2,N/A,,Overcast,230,2012-10-17 20:27:00
3:56 PM,57.0,48.9,74,29.27,10.0,WSW,10.4,19.6,N/A,,Overcast,240,2012-10-17 20:56:00
4:37 PM,57.2,46.4,67,29.27,10.0,West,9.2,17.3,N/A,,Overcast,260,2012-10-17 21:37:00
4:56 PM,57.0,46.9,69,29.28,10.0,WSW,9.2,-,N/A,,Overcast,250,2012-10-17 21:56:00
5:56 PM,55.0,46.0,72,29.27,10.0,SSW,4.6,-,N/A,,Clear,210,2012-10-17 22:56:00
6:56 PM,50.0,45.0,83,29.28,10.0,South,4.6,-,N/A,,Clear,180,2012-10-17 23:56:00
7:56 PM,50.0,46.0,86,29.28,10.0,Calm,Calm,-,N/A,,Scattered Clouds,0,2012-10-18 00:56:00
8:56 PM,53.1,42.1,66,29.27,10.0,WSW,8.1,-,N/A,,Mostly Cloudy,240,2012-10-18 01:56:00
9:56 PM,52.0,39.9,63,29.26,10.0,SW,5.8,-,N/A,,Clear,230,2012-10-18 02:56:00
10:56 PM,50.0,41.0,71,29.25,10.0,West,8.1,-,N/A,,Partly Cloudy,260,2012-10-18 03:56:00
11:42 PM,50.0,42.8,76,29.25,10.0,WSW,6.9,-,N/A,,Mostly Cloudy,250,2012-10-18 04:42:00
11:56 PM,50.0,43.0,77,29.24,10.0,West,10.4,-,N/A,,Overcast,260,2012-10-18 04:56:00